Weather Roundup
Issued by NWS Springfield, MO

Home | Current Version | Previous Version | Text Only | Print | Product List | Glossary On
Versions: 1 2 3 4 5 6 7 8 9 10 11 12 13 14 15 16 17 18 19 20 21 22 23 24 25 26 27 28 29 30 31 32 33 34 35 36 37 38 39 40 41 42 43 44 45 46 47 48 49 50
838
NZUS99 KSGF 230207
HRRSGF

HOURLY WEATHER
NATIONAL WEATHER SERVICE SPRINGFIELD MO
900 PM CDT TUE AUG 22 2017

......SGF CWA......

CITY           SKY/WX    TMP DP  RH WIND       PRES   REMARKS
SPRINGFIELD    CLOUDY    76  72  87 N7        30.07R
JOPLIN         PTCLDY    75  74  96 NE3       30.07R
WEST PLAINS    CLEAR     73  68  84 N3        30.07R
ROLLA          MOCLDY    70  65  84 N3        30.08R
OSAGE BEACH    CLEAR     69  65  86 N3        30.08R
BRANSON        CLOUDY    75  72  88 CALM      30.07R

......SURROUNDING SGF CWA......

CITY           SKY/WX    TMP DP  RH WIND       PRES   REMARKS
CHANUTE        CLEAR     72  64  76 N7        30.09R
PARSONS        CLEAR     73  68  84 N5        30.08R
COFFEYVILLE    CLEAR     74  70  87 E5        30.06R
EMPORIA        CLEAR     69  58  67 NE7       30.12R
GROVE OK       MOCLDY    77  72  83 CALM      30.06R
ROGERS AR      CLOUDY    75  72  90 N5        30.07S
HARRISON AR    CLOUDY    77  73  87 CALM      30.06R
NEAR YELLVILLE CLOUDY    79  66  65 CALM      30.02R

......KANSAS AND MISSOURI......

CITY           SKY/WX    TMP DP  RH WIND       PRES   REMARKS
KANSAS CTY INT CLEAR     64  54  69 N9        30.12R
DOWNTOWN KC    CLEAR     68  58  70 N6        30.10R
COLUMBIA       CLEAR     68  60  75 N6        30.07R
SEDALIA        CLEAR     68  65  90 NW3       30.10R
ST JOSEPH      CLEAR     61  57  87 N5        30.12R
ST LOUIS       PTCLDY    72  62  71 N6        30.03R
SPIRIT OF STL  PTCLDY    68  65  90 CALM      30.03R
KIRKSVILLE     CLEAR     64  52  64 N5        30.10R
WICHITA        PTCLDY    76  61  59 NE9       30.09S
TOPEKA         CLEAR     67  58  72 N5        30.13R
OLATHE         CLEAR     70  57  63 N7        30.12R

......TENNESSEE......

CITY           SKY/WX    TMP DP  RH WIND       PRES   REMARKS
MEMPHIS        MOCLDY    82  69  64 NE13      30.01R
NASHVILLE      CLOUDY    75  73  93 SW6       29.98S

......ARKANSAS.......

CITY           SKY/WX    TMP DP  RH WIND       PRES   REMARKS
FAYETTEVILLE   MOCLDY    76  74  93 N5        30.04S
FT SMITH       CLOUDY    84  75  74 CALM      29.97F HX  92
LITTLE ROCK    MOCLDY    80  74  81 W3        29.98R

......OKLAHOMA.......

CITY           SKY/WX    TMP DP  RH WIND       PRES   REMARKS
TULSA          MOCLDY    79  73  82 NE8       30.01S
PONCA CITY     MOCLDY    74  71  91 E6        30.06R
MCALESTER      TSTM      74  70  87 SE8G20    30.01F FOG
OKLAHOMA CITY  TSTM      70  67  90 W18       30.10R

......IOWA............

CITY           SKY/WX    TMP DP  RH WIND       PRES   REMARKS
DES MOINES     PTCLDY    67  51  56 NW5       30.09R
QUAD CITIES    CLEAR     67  52  58 NW7       30.04R

......ILLINOIS........

CITY           SKY/WX    TMP DP  RH WIND       PRES   REMARKS
QUINCY         CLEAR     64  56  75 N7        30.06R
CHICAGO        PTCLDY    71  49  45 NW10      29.98R




USA.gov is the U.S. government's official web portal to all federal, state and local government web resources and services.